| time (UTC) | temp F | wind direction | speed knots | gust knots | rain 1hr in | rain 24hr in | rain mn in | humidity % | barometer mb |
| 20260505124625 | 56 | 311 | 3.5 | 5.2 | 0.00 | 0.00 | 0.00 | 66 | 1011.2 |
| 20260505123622 | 57 | 341 | 6.1 | 8.7 | 0.00 | 0.00 | 0.00 | 66 | 1011.0 |
| 20260505122622 | 59 | 340 | 4.3 | 6.1 | 0.00 | 0.00 | 0.00 | 62 | 1011.0 |
| 20260505121639 | 59 | 323 | 2.6 | 2.6 | 0.00 | 0.00 | 0.00 | 63 | 1010.8 |
| 20260505120634 | 61 | 321 | 2.6 | 3.5 | 0.00 | 0.00 | 0.00 | 59 | 1010.9 |
| 20260505115633 | 62 | 321 | 4.3 | 5.2 | 0.00 | 0.00 | 0.00 | 57 | 1010.5 |
| 20260505114633 | 61 | 328 | 3.5 | 4.3 | 0.00 | 0.00 | 0.00 | 57 | 1010.5 |
| 20260505113634 | 62 | 306 | 3.5 | 4.3 | 0.00 | 0.00 | 0.00 | 55 | 1010.5 |
| 20260505112649 | 61 | 305 | 2.6 | 2.6 | 0.00 | 0.00 | 0.00 | 55 | 1010.5 |
| 20260505111630 | 61 | 275 | 2.6 | 3.5 | 0.00 | 0.00 | 0.00 | 56 | 1010.3 |
| 20260505110638 | 62 | 289 | 3.5 | 4.3 | 0.00 | 0.00 | 0.00 | 55 | 1010.2 |
| 20260505101630 | 63 | 229 | 2.6 | 4.3 | 0.00 | 0.00 | 0.00 | 53 | 1009.5 |
| 20260505100633 | 64 | 299 | 0.9 | 1.7 | 0.00 | 0.00 | 0.00 | 51 | 1009.5 |
| 20260505095630 | 64 | 263 | 0.9 | 0.9 | 0.00 | 0.00 | 0.00 | 51 | 1009.3 |
| 20260505094623 | 65 | 287 | 0.9 | 1.7 | 0.00 | 0.00 | 0.00 | 48 | 1009.3 |
| 20260505093619 | 64 | 266 | 0.0 | 0.9 | 0.00 | 0.00 | 0.00 | 50 | 1009.3 |
| 20260505092617 | 64 | 252 | 0.9 | 1.7 | 0.00 | 0.00 | 0.00 | 51 | 1009.3 |
| 20260505091637 | 65 | 330 | 2.6 | 2.6 | 0.00 | 0.00 | 0.00 | 49 | 1009.3 |
| 20260505090639 | 64 | 356 | 1.7 | 1.7 | 0.00 | 0.00 | 0.00 | 52 | 1009.2 |
| 20260505085632 | 63 | 271 | 1.7 | 2.6 | 0.00 | 0.00 | 0.00 | 52 | 1009.1 |
| 20260505084630 | 65 | 10 | 2.6 | 3.5 | 0.00 | 0.00 | 0.00 | 49 | 1009.0 |
| 20260505083627 | 65 | 223 | 1.7 | 1.7 | 0.00 | 0.00 | 0.00 | 48 | 1009.0 |
| 20260505082635 | 65 | 327 | 3.5 | 3.5 | 0.00 | 0.00 | 0.00 | 47 | 1009.1 |
| 20260505081626 | 66 | 322 | 3.5 | 4.3 | 0.00 | 0.00 | 0.00 | 45 | 1009.1 |
| 20260505080640 | 67 | 327 | 3.5 | 3.5 | 0.00 | 0.00 | 0.00 | 42 | 1008.9 |
| 20260505075643 | 68 | 313 | 3.5 | 3.5 | 0.00 | 0.00 | 0.00 | 41 | 1009.0 |
| 20260505074636 | 68 | 312 | 4.3 | 6.1 | 0.00 | 0.00 | 0.00 | 42 | 1008.9 |
| 20260505073636 | 68 | 322 | 5.2 | 6.1 | 0.00 | 0.00 | 0.00 | 42 | 1009.0 |
| 20260505072632 | 70 | 287 | 3.5 | 3.5 | 0.00 | 0.00 | 0.00 | 38 | 1008.7 |
| 20260505071630 | 70 | 294 | 2.6 | 2.6 | 0.00 | 0.00 | 0.00 | 37 | 1008.5 |
| 20260505070630 | 70 | 251 | 1.7 | 1.7 | 0.00 | 0.00 | 0.00 | 38 | 1008.5 |
| 20260505065627 | 70 | 211 | 1.7 | 2.6 | 0.00 | 0.00 | 0.00 | 39 | 1008.4 |
| 20260505064627 | 72 | 0.0 | 0.9 | 0.00 | 0.00 | 0.00 | 35 | 1008.3 | |
| 20260505063624 | 73 | 336 | 2.6 | 2.6 | 0.00 | 0.00 | 0.00 | 33 | 1008.1 |
| 20260505062622 | 71 | 326 | 2.6 | 2.6 | 0.00 | 0.00 | 0.00 | 34 | 1008.3 |
| 20260505061638 | 72 | 355 | 1.7 | 1.7 | 0.00 | 0.00 | 0.00 | 33 | 1008.3 |
| 20260505060636 | 72 | 315 | 2.6 | 3.5 | 0.00 | 0.00 | 0.00 | 31 | 1008.0 |
| 20260505055633 | 74 | 297 | 2.6 | 3.5 | 0.00 | 0.00 | 0.00 | 30 | 1007.9 |
| 20260505054649 | 72 | 316 | 5.2 | 6.1 | 0.00 | 0.00 | 0.00 | 33 | 1007.9 |
| 20260505053625 | 75 | 321 | 3.5 | 4.3 | 0.00 | 0.00 | 0.00 | 29 | 1007.8 |
| 20260505052646 | 74 | 307 | 3.5 | 3.5 | 0.00 | 0.00 | 0.00 | 30 | 1007.8 |
| 20260505051626 | 71 | 295 | 3.5 | 3.5 | 0.00 | 0.00 | 0.00 | 36 | 1007.9 |
| 20260505050620 | 71 | 13 | 2.6 | 3.5 | 0.00 | 0.00 | 0.00 | 39 | 1007.7 |
| 20260505041631 | 76 | 297 | 2.6 | 2.6 | 0.00 | 0.00 | 0.00 | 31 | 1007.5 |
| 20260505040626 | 78 | 236 | 0.9 | 1.7 | 0.00 | 0.00 | 0.00 | 28 | 1007.4 |
| 20260505035626 | 78 | 235 | 1.7 | 2.6 | 0.00 | 0.00 | 0.00 | 28 | 1007.5 |
| 20260505034704 | 78 | 210 | 0.9 | 1.7 | 0.00 | 0.00 | 0.00 | 28 | 1007.2 |
| 20260505033625 | 78 | 220 | 1.7 | 1.7 | 0.00 | 0.00 | 0.00 | 28 | 1007.4 |
| 20260505032640 | 78 | 223 | 0.9 | 1.7 | 0.00 | 0.00 | 0.00 | 28 | 1007.2 |
| 20260505031721 | 78 | 223 | 0.9 | 2.6 | 0.00 | 0.00 | 0.00 | 28 | 1007.1 |
| 20260505030635 | 79 | 191 | 0.9 | 1.7 | 0.00 | 0.00 | 0.00 | 28 | 1007.0 |
| 20260505025632 | 81 | 212 | 0.0 | 1.7 | 0.00 | 0.00 | 0.00 | 26 | 1006.8 |
| 20260505024647 | 82 | 30 | 0.9 | 0.9 | 0.00 | 0.00 | 0.00 | 22 | 1006.9 |
| 20260505023628 | 83 | 56 | 0.9 | 1.7 | 0.00 | 0.00 | 0.00 | 22 | 1006.8 |
| 20260505022622 | 84 | 41 | 1.7 | 1.7 | 0.00 | 0.00 | 0.00 | 20 | 1006.9 |
| 20260505021622 | 85 | 146 | 0.9 | 0.9 | 0.00 | 0.00 | 0.00 | 19 | 1006.8 |
| 20260505020625 | 85 | 53 | 1.7 | 2.6 | 0.00 | 0.00 | 0.00 | 19 | 1007.1 |
| 20260505015636 | 85 | 134 | 0.9 | 1.7 | 0.00 | 0.00 | 0.00 | 19 | 1007.2 |
| 20260505014636 | 85 | 20 | 2.6 | 3.5 | 0.00 | 0.00 | 0.00 | 20 | 1007.2 |
| 20260505013636 | 86 | 7 | 0.9 | 1.7 | 0.00 | 0.00 | 0.00 | 18 | 1007.3 |
| 20260505012630 | 86 | 78 | 2.6 | 4.3 | 0.00 | 0.00 | 0.00 | 20 | 1007.4 |
| 20260505011628 | 86 | 25 | 3.5 | 5.2 | 0.00 | 0.00 | 0.00 | 20 | 1007.5 |
| 20260505010629 | 86 | 3 | 5.2 | 6.1 | 0.00 | 0.00 | 0.00 | 20 | 1007.4 |
| 20260505005647 | 86 | 30 | 3.5 | 4.3 | 0.00 | 0.00 | 0.00 | 20 | 1007.4 |
| 20260505004626 | 86 | 42 | 1.7 | 3.5 | 0.00 | 0.00 | 0.00 | 19 | 1007.7 |
| 20260505003624 | 86 | 16 | 6.1 | 7.8 | 0.00 | 0.00 | 0.00 | 19 | 1007.6 |
| 20260505002635 | 86 | 40 | 4.3 | 7.8 | 0.00 | 0.00 | 0.00 | 20 | 1007.7 |
| 20260505001638 | 86 | 52 | 7.8 | 13.0 | 0.00 | 0.00 | 0.00 | 20 | 1007.4 |
| 20260505000632 | 86 | 18 | 2.6 | 3.5 | 0.00 | 0.00 | 0.00 | 21 | 1007.5 |
| 20260504235630 | 85 | 105 | 1.7 | 3.5 | 0.00 | 0.00 | 0.00 | 20 | 1007.5 |
| 20260504234626 | 85 | 176 | 1.7 | 2.6 | 0.00 | 0.00 | 0.00 | 20 | 1007.7 |
| 20260504233629 | 84 | 58 | 1.7 | 4.3 | 0.00 | 0.00 | 0.00 | 23 | 1007.7 |
| 20260504232625 | 84 | 156 | 2.6 | 4.3 | 0.00 | 0.00 | 0.00 | 21 | 1007.6 |
| 20260504231627 | 84 | 138 | 1.7 | 2.6 | 0.00 | 0.00 | 0.00 | 22 | 1007.9 |
| 20260504230625 | 85 | 185 | 3.5 | 4.3 | 0.00 | 0.00 | 0.00 | 22 | 1008.0 |
| 20260504225636 | 85 | 131 | 0.9 | 1.7 | 0.00 | 0.00 | 0.00 | 22 | 1008.0 |
| 20260504224637 | 84 | 63 | 1.7 | 3.5 | 0.00 | 0.00 | 0.00 | 22 | 1008.1 |
| 20260504223634 | 85 | 134 | 2.6 | 4.3 | 0.00 | 0.00 | 0.00 | 23 | 1008.2 |
| 20260504222628 | 84 | 329 | 0.9 | 1.7 | 0.00 | 0.00 | 0.00 | 22 | 1008.3 |
| 20260504221652 | 85 | 71 | 5.2 | 9.6 | 0.00 | 0.00 | 0.00 | 22 | 1008.5 |
| 20260504220625 | 83 | 130 | 1.7 | 2.6 | 0.00 | 0.00 | 0.00 | 24 | 1008.5 |
| 20260504215650 | 84 | 145 | 2.6 | 4.3 | 0.00 | 0.00 | 0.00 | 22 | 1008.6 |
| 20260504214623 | 83 | 194 | 1.7 | 2.6 | 0.00 | 0.00 | 0.00 | 22 | 1008.8 |
| 20260504213618 | 85 | 342 | 8.7 | 12.2 | 0.00 | 0.00 | 0.00 | 21 | 1009.0 |
| 20260504212657 | 83 | 134 | 0.9 | 2.6 | 0.00 | 0.00 | 0.00 | 22 | 1009.0 |
| 20260504211636 | 83 | 136 | 1.7 | 2.6 | 0.00 | 0.00 | 0.00 | 22 | 1009.0 |
| 20260504210658 | 84 | 10 | 7.0 | 10.4 | 0.00 | 0.00 | 0.00 | 22 | 1009.2 |
| 20260504205631 | 83 | 26 | 0.9 | 1.7 | 0.00 | 0.00 | 0.00 | 24 | 1009.6 |
| 20260504204631 | 83 | 359 | 2.6 | 4.3 | 0.00 | 0.00 | 0.00 | 23 | 1009.7 |
| 20260504203625 | 83 | 352 | 4.3 | 7.8 | 0.00 | 0.00 | 0.00 | 24 | 1009.8 |
| 20260504202626 | 83 | 313 | 6.1 | 9.6 | 0.00 | 0.00 | 0.00 | 22 | 1009.8 |
| 20260504201642 | 83 | 319 | 6.1 | 11.3 | 0.00 | 0.00 | 0.00 | 22 | 1009.9 |
| 20260504200622 | 83 | 354 | 8.7 | 11.3 | 0.00 | 0.00 | 0.00 | 22 | 1009.9 |
| 20260504195640 | 83 | 345 | 7.0 | 8.7 | 0.00 | 0.00 | 0.00 | 23 | 1010.1 |
| 20260504194638 | 83 | 310 | 6.1 | 9.6 | 0.00 | 0.00 | 0.00 | 24 | 1010.2 |
| 20260504193636 | 81 | 28 | 3.5 | 6.1 | 0.00 | 0.00 | 0.00 | 26 | 1010.2 |
| 20260504192630 | 82 | 355 | 6.1 | 10.4 | 0.00 | 0.00 | 0.00 | 25 | 1010.2 |
| 20260504191628 | 81 | 344 | 6.1 | 8.7 | 0.00 | 0.00 | 0.00 | 25 | 1010.2 |
| 20260504190624 | 81 | 9 | 7.0 | 9.6 | 0.00 | 0.00 | 0.00 | 27 | 1010.4 |
| 20260504185627 | 80 | 360 | 7.0 | 10.4 | 0.00 | 0.00 | 0.00 | 26 | 1010.4 |
| 20260504184625 | 80 | 28 | 7.0 | 10.4 | 0.00 | 0.00 | 0.00 | 24 | 1010.4 |
| 20260504183618 | 80 | 31 | 7.0 | 9.6 | 0.00 | 0.00 | 0.00 | 26 | 1010.5 |
| 20260504182638 | 79 | 10 | 5.2 | 9.6 | 0.00 | 0.00 | 0.00 | 27 | 1010.6 |
| 20260504181642 | 78 | 349 | 7.0 | 9.6 | 0.00 | 0.00 | 0.00 | 27 | 1010.7 |
| 20260504180635 | 78 | 1 | 5.2 | 6.1 | 0.00 | 0.00 | 0.00 | 28 | 1010.6 |
| 20260504175648 | 78 | 340 | 6.1 | 9.6 | 0.00 | 0.00 | 0.00 | 27 | 1010.4 |
| 20260504174653 | 79 | 342 | 6.1 | 11.3 | 0.00 | 0.00 | 0.00 | 26 | 1010.5 |
| 20260504173624 | 78 | 5 | 7.8 | 11.3 | 0.00 | 0.00 | 0.00 | 27 | 1010.6 |
| 20260504172622 | 77 | 2 | 7.0 | 10.4 | 0.00 | 0.00 | 0.00 | 28 | 1010.5 |
| 20260504171621 | 77 | 357 | 6.1 | 8.7 | 0.00 | 0.00 | 0.00 | 29 | 1010.7 |
| 20260504170619 | 77 | 357 | 4.3 | 7.8 | 0.00 | 0.00 | 0.00 | 29 | 1010.7 |
| 20260504150633 | 69 | 314 | 1.7 | 3.5 | 0.00 | 0.00 | 0.00 | 44 | 1010.6 |
| 20260504140639 | 63 | 348 | 0.9 | 1.7 | 0.00 | 0.00 | 0.00 | 52 | 1010.3 |